• In Belarus
  • List of Countries
  • For 7 days
  • Water Temperature
  • Satellite Maps
  • Weather Map
  • Weather Widgets
  • user-avatar
    Login

    Hourly Weather Mauritius

    Today, 23 February, Friday

    Time Temperature Precipitation Wind Pressure Humidity
    00:00 +26°C° 1.8 mm 2 mps 720 mmHg 82%
    01:00 +26°C° 1.8 mm 2 mps 720 mmHg 82%
    02:00 +26°C° 0.2 mm 2 mps 720 mmHg 82%
    03:00 +26°C° 0.2 mm 2 mps 720 mmHg 83%
    04:00 +26°C° 0.2 mm 2 mps 720 mmHg 83%
    05:00 +26°C° 0.8 mm 2 mps 720 mmHg 83%
    06:00 +26°C° 0.8 mm 2 mps 720 mmHg 83%
    07:00 +26°C° 0.8 mm 2 mps 720 mmHg 82%
    08:00 +27°C° 1 mm 2 mps 720 mmHg 78%
    09:00 +28°C° 1 mm 2 mps 720 mmHg 74%
    10:00 +28°C° 0 mm 2 mps 720 mmHg 72%
    11:00 +29°C° 1 mm 2 mps 720 mmHg 71%
    12:00 +29°C° 1 mm 2 mps 720 mmHg 70%
    13:00 +29°C° 1 mm 2 mps 720 mmHg 70%
    14:00 +29°C° 1.2 mm 2 mps 720 mmHg 70%
    15:00 +29°C° 1.2 mm 2 mps 719 mmHg 70%
    16:00 +29°C° 1.2 mm 2 mps 719 mmHg 71%
    17:00 +28°C° 1.2 mm 2 mps 719 mmHg 73%
    18:00 +28°C° 1.2 mm 2 mps 720 mmHg 75%
    19:00 +27°C° 1.2 mm 2 mps 720 mmHg 78%
    20:00 +27°C° 0.7 mm 2 mps 720 mmHg 78%
    21:00 +27°C° 0.7 mm 2 mps 720 mmHg 79%
    22:00 +26°C° 0.7 mm 3 mps 721 mmHg 79%
    23:00 +26°C° 0.3 mm 3 mps 721 mmHg 80%

    Tomorrow, 24 February, Saturday

    Time Temperature Precipitation Wind Pressure Humidity
    00:00 +26°C° 0.3 mm 3 mps 720 mmHg 81%
    01:00 +26°C° 0.3 mm 3 mps 720 mmHg 81%
    02:00 +26°C° 0.4 mm 3 mps 720 mmHg 82%
    03:00 +26°C° 0.4 mm 3 mps 720 mmHg 82%
    04:00 +26°C° 0.4 mm 3 mps 720 mmHg 82%
    05:00 +26°C° 0.6 mm 3 mps 720 mmHg 82%
    06:00 +26°C° 0.6 mm 3 mps 721 mmHg 82%
    07:00 +26°C° 0.6 mm 3 mps 721 mmHg 81%
    08:00 +27°C° 0 mm 3 mps 721 mmHg 78%
    09:00 +28°C° 0 mm 3 mps 721 mmHg 75%
    10:00 +29°C° 0 mm 3 mps 721 mmHg 71%
    11:00 +29°C° 0.6 mm 3 mps 721 mmHg 71%
    12:00 +29°C° 0.6 mm 3 mps 721 mmHg 70%
    13:00 +29°C° 0.6 mm 3 mps 721 mmHg 70%
    14:00 +29°C° 1.3 mm 3 mps 721 mmHg 70%
    15:00 +29°C° 1.3 mm 2 mps 721 mmHg 71%
    16:00 +28°C° 1.3 mm 2 mps 721 mmHg 71%
    17:00 +28°C° 0.7 mm 2 mps 721 mmHg 73%
    18:00 +28°C° 0.7 mm 2 mps 721 mmHg 74%
    19:00 +27°C° 0.7 mm 1 mps 721 mmHg 75%
    20:00 +27°C° 0.1 mm 2 mps 722 mmHg 76%
    21:00 +27°C° 0.1 mm 2 mps 722 mmHg 77%
    22:00 +27°C° 0.1 mm 2 mps 722 mmHg 78%
    23:00 +27°C° 0.6 mm 2 mps 722 mmHg 79%

    Day after tomorrow, 25 February, Sunday

    Time Temperature Precipitation Wind Pressure Humidity
    00:00 +26°C° 0.6 mm 2 mps 722 mmHg 80%
    01:00 +26°C° 0.6 mm 3 mps 722 mmHg 80%
    02:00 +26°C° 0 mm 3 mps 722 mmHg 80%
    03:00 +26°C° 0 mm 3 mps 721 mmHg 81%
    04:00 +26°C° 0 mm 3 mps 721 mmHg 81%
    05:00 +26°C° 0 mm 3 mps 721 mmHg 81%
    06:00 +26°C° 0 mm 3 mps 722 mmHg 81%
    07:00 +26°C° 0 mm 3 mps 722 mmHg 81%
    08:00 +27°C° 0 mm 3 mps 722 mmHg 78%
    09:00 +28°C° 0 mm 3 mps 722 mmHg 75%
    10:00 +28°C° 0 mm 3 mps 723 mmHg 72%
    11:00 +29°C° 0 mm 3 mps 722 mmHg 70%
    12:00 +29°C° 0 mm 3 mps 722 mmHg 68%
    13:00 +30°C° 0 mm 3 mps 722 mmHg 66%
    14:00 +29°C° 0 mm 3 mps 722 mmHg 67%
    15:00 +29°C° 0 mm 3 mps 721 mmHg 67%
    16:00 +29°C° 0 mm 3 mps 721 mmHg 68%
    17:00 +29°C° 0 mm 3 mps 721 mmHg 71%
    18:00 +28°C° 0 mm 3 mps 722 mmHg 74%
    19:00 +27°C° 0 mm 3 mps 722 mmHg 77%
    20:00 +27°C° 0 mm 3 mps 722 mmHg 78%
    21:00 +27°C° 0 mm 4 mps 723 mmHg 79%
    22:00 +27°C° 0 mm 4 mps 723 mmHg 80%
    23:00 +27°C° 0.4 mm 4 mps 723 mmHg 81%

    26 February, Monday

    Time Temperature Precipitation Wind Pressure Humidity
    00:00 +26°C° 0.4 mm 4 mps 722 mmHg 82%
    01:00 +26°C° 0.4 mm 4 mps 722 mmHg 83%
    02:00 +26°C° 0.1 mm 4 mps 722 mmHg 83%
    03:00 +26°C° 0.1 mm 4 mps 721 mmHg 83%
    04:00 +26°C° 0.1 mm 4 mps 721 mmHg 82%
    05:00 +26°C° 0 mm 4 mps 721 mmHg 82%
    06:00 +26°C° 0 mm 4 mps 722 mmHg 82%
    07:00 +26°C° 0 mm 4 mps 722 mmHg 81%
    08:00 +27°C° 0 mm 4 mps 722 mmHg 78%
    09:00 +28°C° 0 mm 5 mps 723 mmHg 75%
    10:00 +28°C° 0 mm 5 mps 723 mmHg 71%
    11:00 +29°C° 0 mm 5 mps 722 mmHg 68%
    12:00 +30°C° 0 mm 4 mps 722 mmHg 65%
    13:00 +30°C° 0 mm 4 mps 722 mmHg 62%
    14:00 +30°C° 0 mm 4 mps 721 mmHg 63%
    15:00 +30°C° 0 mm 4 mps 721 mmHg 64%
    16:00 +30°C° 0 mm 4 mps 721 mmHg 64%
    17:00 +29°C° 0 mm 4 mps 721 mmHg 69%
    18:00 +28°C° 0 mm 4 mps 721 mmHg 74%
    19:00 +27°C° 0 mm 4 mps 722 mmHg 79%
    20:00 +27°C° 0.2 mm 4 mps 722 mmHg 80%
    21:00 +27°C° 0.2 mm 5 mps 722 mmHg 81%
    22:00 +27°C° 0.2 mm 5 mps 722 mmHg 83%
    23:00 +26°C° 1.3 mm 5 mps 722 mmHg 83%

    27 February, Tuesday

    Time Temperature Precipitation Wind Pressure Humidity
    00:00 +26°C° 1.3 mm 5 mps 722 mmHg 84%
    01:00 +26°C° 1.3 mm 5 mps 722 mmHg 84%
    02:00 +26°C° 1.3 mm 4 mps 721 mmHg 84%
    03:00 +26°C° 1.3 mm 4 mps 721 mmHg 84%
    04:00 +26°C° 1.3 mm 4 mps 721 mmHg 84%
    05:00 +26°C° 0.5 mm 4 mps 721 mmHg 83%
    06:00 +26°C° 0.5 mm 4 mps 721 mmHg 83%
    07:00 +26°C° 0.5 mm 4 mps 722 mmHg 83%
    08:00 +27°C° 0.6 mm 4 mps 722 mmHg 81%
    09:00 +27°C° 0.6 mm 4 mps 722 mmHg 79%
    10:00 +28°C° 0.6 mm 4 mps 723 mmHg 77%
    11:00 +28°C° 0.4 mm 4 mps 722 mmHg 76%
    12:00 +28°C° 0.4 mm 4 mps 722 mmHg 76%
    13:00 +28°C° 0.4 mm 4 mps 721 mmHg 76%
    14:00 +28°C° 0.6 mm 4 mps 721 mmHg 74%
    15:00 +28°C° 0.6 mm 4 mps 721 mmHg 71%
    16:00 +28°C° 0.6 mm 3 mps 720 mmHg 69%
    17:00 +28°C° 0.1 mm 4 mps 721 mmHg 72%
    18:00 +27°C° 0.1 mm 4 mps 721 mmHg 75%
    19:00 +27°C° 0.1 mm 4 mps 721 mmHg 78%
    20:00 +27°C° 0 mm 4 mps 721 mmHg 79%
    21:00 +26°C° 0 mm 4 mps 722 mmHg 81%
    22:00 +26°C° 0 mm 4 mps 722 mmHg 82%
    23:00 +26°C° 0 mm 4 mps 721 mmHg 82%

    28 February, Wednesday

    Time Temperature Precipitation Wind Pressure Humidity
    00:00 +26°C° 0 mm 4 mps 721 mmHg 83%
    01:00 +26°C° 0 mm 4 mps 721 mmHg 83%
    02:00 +26°C° 0.1 mm 4 mps 720 mmHg 83%
    03:00 +26°C° 0.1 mm 4 mps 720 mmHg 83%
    04:00 +26°C° 0.1 mm 4 mps 720 mmHg 83%
    05:00 +26°C° 0.5 mm 4 mps 720 mmHg 83%
    06:00 +26°C° 0.5 mm 4 mps 721 mmHg 83%
    07:00 +26°C° 0.5 mm 4 mps 721 mmHg 82%
    08:00 +26°C° 0.7 mm 4 mps 721 mmHg 80%
    09:00 +27°C° 0.7 mm 4 mps 722 mmHg 78%
    10:00 +27°C° 0.7 mm 4 mps 722 mmHg 75%
    11:00 +28°C° 0 mm 4 mps 721 mmHg 73%
    12:00 +29°C° 0 mm 4 mps 721 mmHg 70%
    13:00 +29°C° 0 mm 4 mps 721 mmHg 67%
    14:00 +29°C° 0 mm 4 mps 721 mmHg 67%
    15:00 +29°C° 0 mm 4 mps 720 mmHg 68%
    16:00 +28°C° 0 mm 5 mps 720 mmHg 68%
    17:00 +28°C° 0 mm 5 mps 720 mmHg 71%
    18:00 +27°C° 0 mm 5 mps 721 mmHg 75%
    19:00 +27°C° 0 mm 5 mps 721 mmHg 78%
    20:00 +27°C° 0.1 mm 6 mps 721 mmHg 79%
    21:00 +26°C° 0.1 mm 6 mps 721 mmHg 80%
    22:00 +26°C° 0.1 mm 6 mps 721 mmHg 81%
    23:00 +26°C° 0.2 mm 6 mps 721 mmHg 82%
    Show more